Погода в Суракарте

Индонезия     7°33′34″S   110°50′21″E
темп.,
°C
ветер,
м/с
пор.,
м/с
влажн.,
%
обл.,
%
осадки,
мм/ч
давл.,
гПа
погр.,
м
2 марта, вт
вт201:00+25ююз118988 3.0 101026
04:00+24ю129396 4.4 100937
07:00+25ссв008898 4.7 101089
10:00+28ссв227853 0.0 1011591
13:00+29с337374 3.5 1009832
16:00+27зсз128658 8.1 1007110
19:00+25ююз349079 11.9 101092
22:00+25зюз1290100 0.3 101128
3 марта, ср
ср301:00+24юз119093 0.3 101024
04:00+23з018983 0.0 100924
07:00+25зюз118484 0.0 1010107
10:00+29св227017 0.0 1011695
13:00+31с336517 2.4 10091006
16:00+28с457883 8.4 1007400
19:00+25ссз128992 11.9 101048
22:00+24ююз0191100 1.8 101245
4 марта, чт
чт401:00+24ю239497 2.4 1011109
04:00+24ююз119099 4.3 101026
07:00+25с008694 4.6 1012107
10:00+29вюв1171100 4.3 1012576
13:00+30в1168100 11.1 1010611
16:00+27ссз1183100 7.3 100859
19:00+25ю1287100 8.8 101144
22:00+24ююз3490100 0.1 101297
5 марта, пт
пт501:00+23ююз369190 0.1 1011172
04:00+23ю3590100 0.0 1010149
07:00+24ююз2587100 0.0 1011264
10:00+29ю456534 0.0 1011967
13:00+31ю795836 0.0 10091354
16:00+29ю7106738 0.1 1008876
19:00+25ю368467 0.2 1010170
22:00+25юз118599 0.1 101128
6 марта, сб
сб601:00+24св118698 0.1 100924
04:00+23всв019096 0.0 100924
07:00+24з018996 0.0 101145
10:00+28с237669 3.4 1011415
13:00+29с447484 13.4 1008576
16:00+24ссз4690100 5.4 1008196
19:00+24вюв1193100 7.1 101029
22:00+24юз0093100 0.7 101124